Location: Burleson Alternative School
(32.5290°N, 97.3406°W)
Time: 07:18:45
(UTC+00:00)

Tiros 1 despin weight - Pass Details

Date: 21 November 2024
Orbit: 570 x 609 km, 48.2° (Epoch: 05 December)

Event Time Altitude Azimuth Distance (km) Brightness Sun altitude
Exits shadow 11:41:27 11° 346° (NNW) 1,855 ? -17.5°
Maximum altitude 11:43:37 15° 17° (NNE) 1,629 ? -17.1°
Drops below altitude 10° 11:46:08 10° 52° (NE) 1,913 ? -16.6°
Sets 11:49:19 0° 77° (ENE) 2,801 ? -15.9°
